Location: Newark
(44.1667°N, 8.2500°E)
Time: 21:29:44
(UTC+00:00)

Explorer 11/Cluster Stage 4 - Pass Details

Date: 23 December 2019
Orbit: 467 x 1259 km, 28.8° (Epoch: 20 January)

Event Time Altitude Azimuth Distance (km) Brightness Sun altitude
Exits shadow 03:03:46 12° 157° (SSE) 2,876 9.5 -41.2°
Maximum altitude 03:04:17 12° 153° (SSE) 2,885 9.6 -41.2°
Drops below altitude 10° 03:07:04 10° 132° (SE) 3,121 10.0 -40.7°
Sets 03:12:17 0° 105° (ESE) 4,177 11.1 -39.7°
